Theta_e
349 349 351 351 351 351 351 351 351 351 351 350 350 349 349 349 350 351 351 350 349 349 349 350 351 352 353 353 352 351 350 350 349 345 347 350 351 352 353 353 353 353 353 352 352 352 352 353 353 353 353 353 354 354 351 348 348 349 351 350 346 344 344 341 337 337 337 337 338 338 338 338 338 338 337 336 336 337 339 339 337 336 336 337 338
349 349 349 350 351 351 351 351 351 351 351 351 351 350 350 350 350 351 351 351 351 350 349 350 350 350 351 353 353 353 353 352 350 347 348 351 352 352 353 353 353 353 353 353 352 351 352 353 354 353 354 354 355 354 351 349 349 350 351 350 346 345 343 338 337 338 337 336 337 338 339 339 338 337 338 337 336 337 339 339 337 336 335 334 335
350 349 348 349 350 351 351 351 352 351 352 352 352 351 351 350 350 351 352 352 352 352 350 350 350 349 350 352 353 354 353 352 350 349 350 352 352 352 353 353 353 353 353 353 353 352 352 353 354 354 354 355 355 354 352 350 351 350 351 350 346 345 341 337 338 339 337 337 337 339 341 342 341 337 337 338 337 337 340 340 337 336 336 334 333
350 349 348 349 349 350 351 351 352 351 352 352 352 352 352 352 352 352 353 353 353 353 352 350 349 350 351 352 354 354 353 353 352 351 351 352 352 353 353 354 354 354 354 353 353 352 353 354 354 354 355 355 355 355 353 351 352 351 351 350 347 345 340 337 339 339 338 338 338 340 337 340 347 340 334 336 337 339 341 340 338 337 336 335 332
350 349 348 348 348 349 350 351 351 352 351 352 352 352 352 352 352 353 353 353 354 354 353 352 351 351 352 353 354 354 353 353 353 353 352 353 353 353 354 354 354 354 354 354 354 353 354 354 355 355 355 355 355 354 352 352 352 351 351 350 346 344 339 336 339 339 339 338 338 341 338 341 349 341 334 336 337 341 343 340 338 338 337 336 333
349 349 348 348 348 348 350 350 351 351 351 352 352 352 352 352 352 353 353 353 354 354 354 353 352 352 352 353 353 353 353 353 353 353 353 353 353 354 354 354 355 355 355 354 354 354 354 354 354 355 355 354 354 354 352 353 353 352 352 350 346 344 339 337 340 339 339 338 336 339 339 340 344 340 339 340 336 336 341 341 340 338 338 336 334
349 348 348 347 347 347 348 349 350 351 351 352 352 352 352 352 352 353 353 353 354 354 354 354 353 352 352 353 353 352 352 353 353 353 353 354 353 354 354 354 355 355 355 354 354 354 354 355 354 355 355 354 354 353 352 352 353 353 353 350 346 342 338 338 339 340 339 338 335 336 336 336 338 338 341 344 341 336 334 337 339 339 339 337 335
349 348 348 347 346 347 347 348 349 350 351 351 351 352 352 352 352 353 353 353 353 353 354 354 353 353 352 352 353 352 352 352 352 353 353 353 353 354 354 354 355 355 354 354 354 354 355 354 354 354 354 354 354 353 352 352 353 354 353 349 344 339 337 339 339 340 340 338 336 335 336 336 337 337 337 339 343 342 337 334 336 337 339 338 336
348 347 348 347 345 346 346 347 348 349 350 350 351 352 352 352 352 353 353 352 353 353 353 354 353 353 353 352 352 352 352 352 352 353 352 353 353 353 353 354 354 355 355 355 355 355 355 354 354 353 354 354 354 353 353 352 352 354 353 349 342 337 337 340 340 340 340 339 338 335 335 336 337 337 335 332 336 341 341 337 333 333 335 336 336
348 347 347 346 345 345 346 346 347 348 349 350 351 351 351 352 352 352 352 352 353 353 353 354 353 353 353 352 352 351 351 352 352 352 352 353 353 353 353 353 354 355 355 355 355 355 355 355 354 354 354 354 354 354 353 352 351 353 354 349 341 336 338 340 341 340 340 339 338 335 335 336 336 335 335 333 332 333 336 336 332 331 333 334 335
347 347 346 345 345 345 345 345 346 347 348 349 350 350 350 351 351 351 352 352 352 352 353 353 353 353 353 352 352 351 351 351 352 352 352 353 353 353 354 354 355 355 355 355 355 355 355 355 355 354 354 354 354 354 354 352 350 352 354 348 339 337 339 341 341 341 340 339 339 337 335 334 336 336 334 334 332 332 335 335 331 330 331 331 332
346 346 346 346 345 345 344 344 345 346 347 348 349 349 350 350 351 351 351 351 352 352 353 353 353 353 353 352 351 351 350 351 351 351 352 352 353 353 354 355 355 355 355 355 355 356 356 356 355 354 354 354 354 354 353 352 350 352 354 347 338 338 340 341 341 341 340 340 339 338 336 335 336 336 336 334 333 332 334 334 330 331 332 330 330
345 346 346 346 346 345 344 343 344 345 346 348 348 349 349 350 350 350 351 351 351 352 352 352 353 353 352 352 351 351 351 351 351 351 352 352 352 353 354 354 355 355 355 355 355 355 356 356 355 354 355 354 354 353 352 352 351 353 353 345 338 339 340 340 341 341 340 340 338 338 337 336 336 336 336 335 334 332 332 332 331 332 333 332 331
345 346 345 346 346 344 344 343 343 344 345 347 348 349 349 349 350 350 350 351 350 352 352 352 353 352 353 352 352 352 351 351 351 351 351 352 352 353 353 353 354 354 355 354 354 355 355 356 355 355 355 355 355 354 353 353 353 354 352 344 338 339 340 340 341 341 341 339 338 337 337 336 336 337 337 336 334 333 332 332 332 333 333 332 332
345 346 345 346 346 343 343 343 343 343 344 346 347 348 349 349 350 350 350 350 350 351 352 352 352 352 352 352 352 352 352 351 351 351 351 351 351 352 352 353 353 353 353 353 353 354 355 356 356 356 356 355 355 354 354 354 354 354 350 342 337 337 338 340 340 341 341 340 338 337 336 337 337 337 337 337 335 334 334 332 333 336 337 334 333
344 345 345 345 345 343 343 342 343 343 343 345 347 348 349 349 350 350 350 350 350 351 351 352 352 352 352 352 352 352 352 352 352 351 351 351 351 351 351 352 352 352 352 352 352 353 354 356 356 356 356 356 356 355 355 354 354 352 347 340 336 336 338 340 340 341 341 341 340 338 336 337 336 336 336 336 335 334 334 333 332 334 337 339 340
344 345 345 346 345 343 343 342 343 343 343 344 345 347 349 349 350 350 350 350 350 350 351 351 352 352 352 352 352 352 352 352 352 352 351 351 351 351 351 351 351 351 351 351 352 353 354 356 357 357 356 356 356 355 355 354 352 350 345 339 336 336 339 339 339 341 341 340 340 338 336 335 335 334 335 335 335 334 334 333 333 331 332 339 345
343 345 345 345 345 344 343 342 342 343 343 344 345 346 348 349 350 350 350 350 350 350 351 351 352 352 352 352 352 352 352 352 352 352 351 352 352 352 352 351 351 351 351 351 352 354 355 356 357 357 356 356 355 354 355 354 351 349 343 338 337 337 339 339 339 341 340 339 339 337 335 335 335 334 335 335 334 334 334 332 333 332 331 334 337
341 343 343 344 345 344 343 343 342 343 343 344 345 345 347 349 350 350 350 350 350 351 351 351 352 352 352 352 352 352 352 352 352 352 352 352 352 352 352 352 351 352 352 352 352 354 355 356 356 357 356 355 355 354 354 354 351 347 342 339 338 338 339 338 339 341 339 337 337 334 333 334 335 335 335 335 334 334 334 332 332 332 331 332 331
339 340 342 343 343 343 343 343 342 342 343 344 344 345 346 348 349 350 350 350 351 351 351 352 352 352 352 352 352 352 352 352 352 352 352 352 352 352 352 352 352 352 352 352 352 353 355 355 356 356 356 355 355 354 354 353 351 346 342 340 340 338 338 338 340 341 338 337 336 334 333 333 334 334 335 336 335 334 334 333 333 332 332 333 332
339 338 340 341 341 342 342 343 343 343 343 344 344 345 345 347 349 350 350 351 351 351 351 352 352 353 353 352 352 352 352 352 352 352 352 352 352 352 353 353 353 353 353 352 353 353 354 355 355 355 356 355 354 354 354 353 351 346 343 343 342 340 339 339 340 341 339 338 337 335 335 334 333 334 335 335 335 334 334 333 334 334 333 334 333
339 338 338 339 340 342 342 343 344 343 343 344 344 345 345 346 348 349 350 351 351 351 351 352 352 353 353 353 353 353 352 352 352 352 353 353 353 353 353 354 354 353 353 353 353 353 353 354 355 355 355 355 354 354 353 353 351 347 344 344 344 343 341 340 339 340 339 339 338 336 336 336 334 334 335 335 336 334 334 335 334 334 334 333 333
340 338 337 339 339 341 342 342 344 344 344 344 344 345 346 346 347 348 350 350 351 351 351 352 352 353 353 353 353 353 353 353 353 352 353 353 353 354 354 354 354 353 354 353 353 354 353 354 355 355 355 354 353 353 353 353 351 348 346 344 345 345 343 341 339 339 339 339 338 337 337 336 334 334 335 335 336 335 335 336 335 334 334 333 334
343 340 340 340 339 341 343 344 344 344 344 345 345 345 346 346 347 348 349 350 350 352 351 352 353 352 353 353 353 354 353 353 354 353 353 353 353 354 354 354 354 354 354 354 354 354 354 354 354 355 354 354 353 353 353 352 351 349 347 346 345 345 345 343 340 338 339 340 339 337 337 335 333 333 334 335 336 336 336 336 336 335 335 335 335
344 343 344 343 342 343 345 346 345 343 344 345 345 347 347 347 348 348 349 350 350 351 352 352 353 353 353 354 354 354 354 354 354 354 354 354 354 354 354 354 354 354 354 354 354 354 354 354 354 354 354 354 353 352 352 352 351 350 349 347 346 345 345 343 340 338 339 340 339 337 337 335 332 332 334 335 335 336 337 336 336 336 336 336 335
346 346 346 346 345 345 345 346 345 342 344 345 345 347 347 347 348 348 349 350 350 352 352 352 353 353 353 354 353 354 354 354 354 354 354 354 354 354 354 354 354 354 354 354 354 354 354 354 354 353 354 354 353 352 352 351 351 350 350 349 347 346 345 343 341 339 339 339 338 337 337 336 333 332 333 334 335 336 337 337 336 336 336 335 335
345 345 346 348 349 348 347 346 344 341 343 345 345 346 347 347 348 349 349 350 351 352 353 353 353 353 354 354 354 354 354 354 355 354 355 355 355 355 355 354 354 354 354 354 354 354 354 353 354 353 354 353 353 352 352 351 351 350 350 349 347 345 344 343 342 340 339 338 338 337 337 336 335 334 333 333 334 336 336 336 336 336 335 335 335
346 346 348 350 350 349 349 346 344 342 342 345 345 346 347 348 348 349 349 350 351 352 353 353 354 354 354 355 354 355 354 354 354 355 355 355 355 355 355 355 355 354 354 354 354 354 354 353 353 353 353 353 353 352 351 351 350 350 349 348 347 346 344 342 342 341 339 338 338 337 337 336 336 335 335 334 334 335 336 336 336 335 335 335 336
347 349 350 350 349 349 350 348 345 343 342 344 346 346 347 348 349 349 350 350 351 352 353 354 354 354 355 355 355 355 355 355 355 355 355 355 355 355 355 355 355 355 354 354 354 354 354 353 354 353 353 353 352 352 351 351 350 350 349 348 346 345 344 342 341 341 339 338 338 337 337 336 336 336 336 335 335 336 336 336 336 336 336 336 335
343 347 348 347 347 348 349 349 348 346 343 344 345 346 348 348 349 349 350 351 351 352 353 354 355 355 355 355 355 356 356 355 355 355 355 355 355 356 356 356 355 355 355 354 354 354 353 353 353 353 353 352 352 352 352 351 351 350 349 348 346 345 344 342 341 340 339 338 338 338 337 337 336 336 336 336 336 336 336 336 336 336 335 335 335
341 344 345 346 347 348 348 350 351 348 344 343 345 347 348 348 349 350 350 351 352 352 354 354 354 355 355 355 356 356 356 356 356 356 356 356 356 356 356 356 356 356 355 355 354 354 353 353 353 353 353 352 352 352 352 352 351 350 350 348 347 345 344 342 341 340 339 339 339 338 337 336 336 336 336 336 336 336 336 336 336 335 335 335 335
341 345 347 346 346 347 349 349 348 346 344 343 345 347 348 349 349 349 350 351 352 353 354 354 355 355 355 356 356 356 357 357 356 357 356 356 356 356 356 356 356 356 355 355 355 354 354 353 353 352 352 352 352 352 352 352 351 351 350 349 347 346 344 343 342 341 341 340 340 338 337 336 335 335 335 335 335 335 335 336 336 336 336 336 336
345 348 350 349 344 344 346 346 345 344 343 344 346 346 348 349 349 350 351 351 352 353 353 354 355 355 356 356 356 356 357 357 357 357 357 357 357 356 357 356 356 356 356 355 355 355 354 353 353 353 352 352 352 352 352 351 351 351 350 349 348 347 345 344 343 342 341 341 339 337 336 335 335 333 333 334 335 335 334 335 336 336 337 336 336
352 352 352 350 347 345 345 343 342 343 343 345 346 347 348 349 349 350 351 351 352 353 354 355 355 355 356 356 356 357 357 357 357 357 357 357 357 357 357 357 356 356 356 355 355 355 354 354 353 353 352 352 352 352 352 351 351 351 350 350 348 347 346 345 344 343 343 341 339 337 337 337 335 333 332 334 336 335 335 335 336 336 336 336 337
355 354 354 355 353 350 348 343 341 341 343 345 347 347 348 349 350 350 351 352 353 353 354 355 355 355 356 356 356 357 357 357 357 357 358 357 357 357 357 357 357 357 356 356 356 355 355 354 354 353 353 352 352 352 351 351 351 351 351 350 348 347 346 345 344 344 343 341 339 338 338 337 335 334 333 334 335 335 336 336 336 336 337 338 338
352 351 352 354 351 346 345 344 341 342 344 344 346 348 348 350 351 351 351 352 353 354 354 355 355 356 356 356 357 357 357 357 357 357 358 358 357 358 358 357 357 357 357 356 356 355 355 354 354 354 353 353 352 351 351 351 351 351 350 349 348 346 345 345 344 344 342 341 339 339 338 338 337 336 336 335 334 334 336 336 336 337 338 339 338
349 348 348 347 344 340 339 341 341 343 344 344 346 348 349 351 351 351 352 352 353 354 354 355 355 356 356 357 357 357 357 357 357 358 358 358 358 358 358 358 357 357 357 357 356 356 355 355 354 354 353 353 352 352 351 351 351 350 350 349 347 345 345 344 344 343 342 340 340 339 338 338 337 338 338 336 334 334 335 336 337 338 338 337 336
347 348 349 347 345 343 339 341 343 344 344 344 346 347 349 351 351 351 352 353 353 354 354 355 355 356 357 357 357 358 358 358 358 358 358 358 358 358 358 358 358 357 357 357 356 356 355 355 354 354 353 353 352 352 352 351 351 350 350 349 347 345 344 344 344 343 341 341 340 339 339 338 338 338 338 336 335 335 336 337 338 338 337 336 335
345 348 349 348 348 346 342 341 343 344 345 346 346 346 348 350 351 352 353 353 353 354 354 355 355 355 356 357 357 358 358 358 358 358 358 358 358 358 358 358 358 358 357 357 357 356 355 355 355 354 354 353 353 352 352 351 351 351 350 349 347 345 344 343 343 342 341 341 340 340 339 339 339 339 338 336 335 336 336 337 337 337 336 335 334
345 346 346 346 348 350 351 349 345 344 346 346 346 347 348 349 350 351 352 352 353 354 354 355 355 356 357 357 358 358 358 359 359 358 359 359 359 359 359 358 358 358 357 357 357 356 356 355 354 354 354 353 352 352 351 351 351 351 351 350 347 345 344 343 343 341 341 340 340 340 340 339 339 339 338 337 336 337 337 337 337 337 336 335 334
345 345 345 344 345 349 352 351 350 348 345 346 347 347 347 349 350 350 352 352 353 353 353 354 355 356 357 357 358 359 359 359 359 359 359 359 359 359 359 358 358 358 357 357 356 356 355 355 355 354 354 353 352 352 351 351 351 351 352 350 347 346 346 345 343 342 341 340 340 340 340 340 339 339 338 337 337 337 338 337 337 338 337 335 334
343 343 344 343 343 347 349 349 351 351 347 346 348 348 348 349 349 349 351 351 352 353 353 353 354 355 356 357 358 359 359 360 359 359 359 359 360 360 359 359 359 358 358 357 356 356 355 355 354 354 353 353 352 351 352 352 352 352 352 351 349 348 348 346 343 342 341 341 341 340 340 340 339 338 338 338 337 337 337 337 338 337 335 335 335
341 342 343 342 342 344 345 346 349 351 351 349 348 348 348 349 350 350 350 350 351 352 353 353 354 354 355 356 358 358 359 360 360 360 360 360 360 360 360 359 359 358 358 357 356 355 355 354 354 353 353 353 352 351 352 352 352 352 352 351 351 350 349 346 344 343 343 341 341 341 341 340 339 339 338 337 337 337 337 337 336 335 334 335 336
341 342 342 342 342 342 343 344 346 348 351 352 351 350 349 348 350 350 350 351 351 351 352 353 353 354 354 355 357 358 358 359 360 360 359 360 360 360 359 360 359 359 358 357 357 356 354 354 353 352 352 351 351 351 352 352 352 352 352 352 351 349 348 346 345 344 343 342 342 341 340 340 339 339 338 337 337 338 337 336 335 334 335 336 337
342 342 343 343 342 341 342 344 344 345 347 348 349 351 351 350 351 352 351 352 351 351 352 352 352 353 354 354 355 356 358 359 360 360 360 360 360 360 360 359 359 359 358 358 357 356 355 354 353 351 350 350 350 351 351 352 352 352 352 352 351 350 348 347 345 344 344 343 343 342 341 340 339 338 338 338 338 337 336 335 335 335 336 337 338
342 343 343 343 343 343 343 344 344 345 345 345 346 347 348 349 351 353 355 355 353 351 352 353 352 352 353 353 354 355 356 358 359 360 360 360 360 360 360 359 359 359 358 358 357 355 354 353 352 350 349 348 349 350 351 351 352 351 351 351 350 349 348 347 345 344 344 343 343 342 341 340 339 339 340 339 337 336 336 336 336 337 337 337 337
343 343 343 344 344 344 344 344 345 345 345 345 345 345 345 347 350 352 354 355 355 354 352 352 353 353 352 352 353 354 356 357 358 359 360 360 360 360 359 359 359 359 358 358 357 355 354 353 351 349 348 347 348 348 348 349 350 349 349 349 347 345 344 343 342 342 342 342 341 340 340 339 339 339 339 338 337 336 336 337 337 337 337 337 335
342 342 343 344 345 345 345 345 346 345 345 345 345 345 345 346 348 351 352 354 356 356 354 353 352 352 353 353 352 353 354 355 357 359 359 359 359 359 359 359 359 359 359 358 356 355 354 352 351 349 347 346 345 345 346 348 349 349 347 344 342 341 341 341 340 340 340 340 340 339 339 338 338 337 336 336 337 337 337 337 337 336 336 334 330
342 342 343 343 344 345 345 345 345 345 346 346 346 346 346 345 346 348 351 353 355 356 357 356 354 353 352 352 352 352 353 354 356 358 358 359 359 359 359 359 359 359 359 358 357 356 354 353 351 349 347 345 343 344 347 349 349 349 347 343 341 341 340 339 340 340 339 339 338 338 337 336 336 335 335 336 336 336 336 336 335 336 335 331 327
342 342 342 342 343 344 344 345 345 344 345 346 346 346 346 346 346 347 349 351 353 354 355 357 357 356 354 353 352 352 352 353 354 356 358 359 359 359 359 359 358 359 359 358 358 357 355 353 351 349 348 347 347 346 348 351 351 349 348 347 346 344 341 338 339 340 339 338 336 336 335 335 335 334 334 334 335 336 335 334 334 335 332 328 326
340 341 341 341 342 342 343 343 343 343 343 345 346 345 345 345 346 346 348 349 350 351 351 352 353 353 354 354 354 354 353 353 353 354 356 358 358 358 358 358 358 358 357 358 358 357 354 353 351 349 348 349 349 347 348 350 352 350 348 347 346 343 339 338 339 339 337 336 334 334 333 333 333 333 333 334 335 334 333 333 334 332 330 328 327
Wind_Speed
14 20 25 27 29 29 30 30 30 31 31 32 32 33 34 34 33 33 33 32 32 32 32 31 30 28 27 28 28 28 28 28 29 29 28 27 26 24 22 21 20 19 19 20 20 20 21 21 20 19 17 16 15 14 13 13 12 12 10 10 9 8 8 7 5 3 3 3 3 3 3 4 3 1 3 5 6 7 8 6 4 3 2 2 1
10 16 21 25 27 28 29 29 30 31 31 33 34 35 35 35 35 34 33 33 34 35 34 33 33 32 30 29 29 28 28 29 30 30 29 27 26 24 23 21 21 20 20 21 22 22 22 21 21 20 18 16 16 14 13 13 13 12 11 10 9 8 7 5 4 4 3 2 1 1 2 2 2 1 2 6 7 9 9 8 6 4 2 1 1
12 14 18 24 27 28 29 29 31 33 34 35 36 36 35 35 35 34 35 35 36 36 36 35 35 34 33 30 29 28 28 30 30 29 28 27 26 25 23 23 22 22 21 21 22 22 22 21 20 20 19 17 17 15 14 13 13 12 11 11 10 9 8 6 5 4 3 1 1 1 1 1 1 1 1 4 7 9 11 9 7 5 3 1 1
15 15 16 21 25 28 29 30 32 33 33 35 36 35 35 36 37 36 37 37 37 37 37 36 34 33 32 29 27 26 27 27 28 29 29 28 27 26 25 24 24 23 21 21 22 22 22 21 20 20 20 18 17 16 15 14 14 13 12 12 11 10 9 7 6 5 5 3 1 2 1 1 0 1 1 1 4 8 10 10 8 6 4 2 1
16 17 17 18 22 27 31 32 32 32 33 35 36 37 38 39 40 40 39 38 38 38 37 35 32 31 29 26 24 23 23 24 25 28 30 30 29 28 28 26 25 24 23 22 22 22 21 21 21 21 20 19 18 17 16 15 14 14 14 13 13 11 10 8 7 6 6 6 4 2 1 1 1 1 1 1 2 7 9 10 9 7 6 4 2
14 15 16 16 21 27 31 32 32 32 35 37 39 40 41 41 41 40 39 38 38 38 37 35 34 32 29 27 25 23 23 24 26 27 29 31 31 30 29 27 26 25 24 23 23 23 22 21 21 21 21 19 18 18 17 16 15 15 15 14 13 12 11 10 8 7 6 6 6 4 2 2 1 3 2 1 1 3 6 9 10 9 8 6 5
13 14 14 15 19 22 26 32 34 35 38 40 39 40 40 39 39 40 39 39 39 38 37 37 36 35 33 32 30 27 26 27 27 27 27 29 30 30 29 28 27 26 25 24 24 24 23 22 22 21 21 20 19 18 18 17 16 16 15 14 14 13 12 12 11 9 7 7 6 6 5 4 3 3 2 1 1 1 4 7 10 11 9 9 8
14 14 15 16 18 21 25 32 37 40 41 40 39 40 40 39 39 40 40 39 38 38 38 38 38 37 36 34 32 32 31 29 27 25 25 26 28 29 29 29 29 28 27 25 24 24 23 23 22 22 21 20 19 19 18 18 17 16 15 15 15 14 14 13 12 11 10 8 7 6 5 4 4 5 4 4 3 1 2 4 8 11 12 12 11
16 16 17 17 20 26 31 34 39 43 42 41 42 43 43 42 41 41 41 40 39 39 40 40 40 39 37 35 33 33 33 30 27 25 25 25 26 28 29 30 30 29 28 27 25 25 24 23 23 22 21 21 20 20 19 19 18 17 16 16 16 15 15 14 13 12 12 11 9 7 6 4 4 4 5 5 3 3 1 1 6 9 11 14 15
15 16 16 18 23 32 36 37 39 40 40 41 43 43 42 42 41 41 43 42 41 41 42 42 42 40 38 37 36 34 32 30 27 26 25 25 26 27 29 31 31 30 29 28 27 26 25 24 24 23 22 21 20 20 20 20 19 18 17 17 17 16 16 15 13 13 12 13 12 9 7 6 4 3 4 5 4 4 3 2 7 9 9 13 17
15 16 16 18 25 31 32 32 35 36 35 37 38 38 39 40 40 41 43 42 41 41 42 43 43 41 40 39 39 37 33 30 28 27 27 26 27 28 30 31 31 31 30 29 28 27 26 26 25 24 23 22 21 20 20 20 20 19 17 18 18 17 17 15 14 13 13 14 14 12 10 8 7 5 5 6 4 3 3 3 8 12 11 12 14
15 15 15 16 20 24 25 27 30 31 31 32 34 35 36 37 39 40 41 41 40 41 42 43 42 42 42 41 40 39 35 32 31 30 30 29 29 30 30 30 31 30 30 30 29 28 27 27 26 25 24 23 22 21 21 21 20 19 18 19 19 18 17 16 15 15 15 15 15 14 12 11 10 8 6 7 6 5 5 4 5 9 9 10 11
15 15 15 15 16 17 20 26 29 29 31 33 34 34 35 37 39 40 41 42 41 41 42 43 43 43 43 42 42 40 38 36 35 33 32 32 31 31 31 31 31 30 31 32 31 30 29 28 27 27 25 24 23 21 21 21 20 19 19 21 21 20 18 17 17 17 17 17 16 15 14 13 12 11 8 8 8 7 6 4 5 5 4 6 8
17 16 16 16 17 16 19 26 29 30 33 36 35 35 35 36 38 40 41 42 42 42 42 43 44 45 45 44 42 40 39 38 37 36 34 34 33 32 33 33 33 32 33 33 33 31 30 29 29 27 26 24 23 22 22 22 21 20 21 22 22 21 19 19 19 19 19 18 17 16 15 15 14 13 11 10 9 8 7 7 6 3 1 3 4
16 16 17 17 18 18 21 27 29 31 34 36 36 37 36 36 38 40 40 41 43 42 42 43 44 44 44 43 42 41 40 39 39 38 36 36 35 34 34 34 34 34 34 33 32 31 31 30 29 28 27 25 24 23 23 22 21 21 22 23 23 23 21 21 21 21 21 20 18 17 16 15 14 14 13 12 11 9 8 9 8 4 1 1 1
16 16 17 19 19 19 22 26 29 32 34 35 37 37 38 38 38 41 42 42 43 44 44 44 44 43 43 43 42 41 40 38 38 38 37 38 37 36 35 35 35 35 33 32 31 31 31 30 30 29 28 26 25 24 24 23 22 23 24 24 24 23 22 22 22 22 22 20 19 18 17 16 14 13 13 13 12 11 9 9 10 8 4 1 1
17 17 19 19 18 19 24 28 30 32 33 35 39 40 41 40 39 40 41 41 42 44 44 44 43 43 42 43 43 42 41 40 39 39 39 38 37 37 37 35 35 34 33 32 31 31 30 30 30 29 28 27 26 26 25 24 24 24 25 26 25 24 23 23 22 22 22 20 20 19 18 17 14 12 12 12 12 12 10 9 10 10 8 4 1
17 18 18 18 17 19 24 29 32 35 36 38 42 43 42 41 40 40 40 41 42 44 44 44 43 42 42 43 43 43 43 42 41 40 39 38 37 37 36 35 35 34 33 32 30 30 30 30 30 30 29 28 27 27 26 25 25 26 27 27 26 25 24 24 23 23 22 20 20 20 19 18 16 13 12 11 12 12 12 11 10 10 10 8 5
15 16 15 16 17 19 23 29 33 36 37 39 41 40 39 40 41 41 41 43 44 43 43 43 42 42 42 43 43 43 43 42 41 39 38 38 38 38 37 36 35 34 33 32 31 30 30 30 30 30 30 29 28 28 27 27 27 28 28 27 26 25 25 25 24 24 22 21 20 20 19 18 17 15 12 12 12 11 11 10 9 10 10 10 10
14 16 17 18 19 21 26 32 34 36 38 39 38 36 37 39 40 40 41 41 41 41 41 42 42 42 41 41 42 42 42 42 40 38 38 39 39 38 37 36 35 34 34 33 32 32 31 31 31 31 31 30 30 29 29 28 29 30 30 29 27 26 27 27 26 24 23 22 21 21 20 19 17 16 15 14 13 12 11 10 10 10 9 10 11
16 16 18 19 19 21 27 33 34 35 36 36 34 35 37 38 38 40 40 40 41 42 42 42 42 41 40 40 41 41 42 41 40 39 39 39 39 38 37 36 35 35 35 34 33 33 32 32 32 32 32 31 31 31 30 30 31 32 32 30 28 27 28 28 27 26 25 24 23 23 22 20 19 18 17 16 15 13 12 11 11 11 11 11 12
16 17 17 18 17 18 23 29 31 31 31 31 32 34 36 37 38 40 40 40 42 43 43 43 41 40 41 41 40 41 42 41 41 40 40 39 38 38 37 35 35 35 35 35 34 34 33 33 33 33 33 33 33 32 32 33 34 34 33 32 31 29 30 30 29 28 28 26 25 24 23 22 21 20 18 17 17 15 13 13 12 12 13 13 12
14 15 14 14 15 16 19 24 27 28 30 31 32 34 35 38 40 39 39 42 44 44 43 42 40 41 42 41 40 40 41 41 41 41 40 39 38 37 36 35 35 35 35 35 35 35 34 34 34 34 34 34 34 34 34 34 35 35 35 34 33 32 32 31 31 31 30 29 27 26 25 23 22 22 21 19 17 16 15 14 14 13 13 13 13
13 13 12 11 11 12 14 17 20 24 28 30 32 33 35 37 38 37 40 44 44 42 41 40 40 40 40 40 40 40 40 41 42 41 40 39 38 37 36 36 35 35 35 36 35 35 35 35 35 35 36 36 36 35 35 36 36 36 36 36 35 34 33 33 33 32 31 30 29 29 27 24 23 24 23 21 19 17 16 15 15 14 14 14 14
11 11 10 10 11 12 13 14 16 21 26 29 31 33 34 35 37 38 41 43 42 40 39 39 40 39 39 40 40 40 40 41 41 41 40 40 39 38 37 36 36 35 35 35 35 35 36 36 37 37 37 38 37 37 36 37 37 37 37 37 36 35 35 34 34 33 32 31 31 31 29 26 24 25 25 24 21 19 17 16 16 16 15 14 14
12 12 11 11 12 13 14 14 15 20 25 27 30 32 34 35 38 40 42 41 40 40 39 38 39 38 39 40 40 41 41 41 41 41 40 40 39 39 38 37 37 36 36 35 36 36 37 38 39 39 39 39 38 38 38 37 37 37 37 37 37 36 36 35 34 33 33 32 32 31 30 28 26 26 27 26 24 21 20 18 18 17 16 15 15
11 10 10 11 12 13 15 15 15 20 25 28 30 32 34 35 37 40 40 39 39 39 38 38 38 38 39 40 41 42 42 41 41 41 40 40 40 39 38 38 37 36 36 37 37 38 39 40 40 40 40 39 39 38 38 38 37 37 37 37 37 36 36 35 35 35 34 33 33 32 32 31 29 28 28 27 25 23 21 20 19 18 17 17 17
8 8 9 11 13 14 15 14 15 19 24 28 30 32 34 35 37 39 38 38 39 39 38 39 38 39 40 41 42 42 41 41 41 40 40 40 39 39 38 37 37 37 38 38 39 39 40 40 40 40 40 39 39 39 39 38 38 37 37 37 37 36 36 36 36 35 35 34 33 33 33 33 31 30 29 28 27 25 22 21 20 18 17 18 18
8 10 11 13 15 15 15 15 16 17 21 25 27 30 32 33 35 36 38 39 39 39 40 40 39 41 43 43 42 40 40 40 39 39 39 39 38 38 37 37 37 38 39 39 39 40 40 40 40 40 40 39 39 40 40 40 39 39 38 37 36 36 36 36 36 35 34 34 34 34 34 33 32 31 30 29 27 25 23 23 21 19 18 18 17
9 10 11 13 15 15 15 15 15 15 18 22 25 28 30 33 34 36 38 39 39 38 39 39 40 42 42 41 40 39 39 39 39 39 39 38 38 37 37 37 38 38 38 38 39 39 40 41 40 39 38 39 40 42 42 42 41 41 39 37 36 36 36 36 35 34 34 35 35 34 33 32 32 30 29 29 27 25 24 23 21 19 19 19 18
9 10 10 11 12 13 13 13 15 16 20 23 26 29 32 33 34 36 37 38 38 38 38 39 41 42 40 39 39 39 38 39 40 40 40 39 38 37 37 38 38 38 39 38 39 40 41 41 40 39 39 40 42 43 44 43 43 42 40 38 37 37 37 36 35 34 35 35 35 35 33 31 30 28 28 28 27 25 24 23 21 20 19 19 18
9 8 8 10 12 12 12 14 16 17 21 26 28 29 30 31 34 37 37 36 37 37 38 40 40 38 38 39 39 39 39 40 41 41 40 39 38 38 38 39 39 39 39 38 40 42 42 40 39 39 40 41 43 44 44 44 43 42 41 39 38 37 37 36 36 36 36 35 36 33 27 24 24 24 26 27 26 25 25 24 22 20 18 18 18
7 6 7 9 10 11 13 15 16 19 26 32 33 31 32 36 38 37 35 34 36 37 37 38 38 36 38 39 39 38 39 40 41 41 40 38 38 39 40 40 40 40 39 40 41 42 41 39 39 39 41 42 43 44 44 44 43 42 42 40 39 38 37 37 36 36 36 36 33 24 19 22 26 26 27 28 27 25 25 24 22 19 18 19 19
6 6 8 9 9 10 12 14 17 23 28 31 32 33 34 36 35 33 33 35 37 38 38 38 37 37 38 38 38 39 39 40 40 39 38 38 40 40 41 41 40 39 39 40 41 41 40 39 40 40 41 41 42 43 44 43 43 42 42 42 40 38 38 37 37 37 37 35 30 24 25 31 32 28 26 27 26 25 24 24 22 20 20 20 20
6 6 7 8 9 9 10 12 18 22 23 23 26 29 30 28 29 32 35 37 38 38 38 38 37 37 37 37 38 38 38 38 38 38 38 38 39 40 41 40 39 40 41 41 40 40 40 40 40 40 39 40 42 43 43 43 43 42 42 42 40 39 37 37 37 37 36 34 31 30 33 34 30 27 27 26 25 25 25 24 23 22 21 20 20
6 6 7 7 8 10 12 13 16 18 18 20 23 26 25 25 29 33 34 35 35 35 35 34 34 36 37 38 39 38 37 36 36 36 37 37 39 40 40 40 38 38 39 39 39 39 39 39 39 39 39 40 41 41 42 43 43 42 41 41 40 39 37 37 37 37 35 34 33 33 33 32 30 29 26 24 23 24 25 25 24 22 20 19 18
6 7 7 7 8 11 14 14 14 15 18 21 23 24 24 24 26 29 30 31 31 31 32 33 34 36 38 39 38 36 35 35 35 37 38 39 40 40 39 39 38 37 37 38 38 37 38 38 39 39 41 40 39 39 41 43 42 41 40 40 40 38 37 37 37 36 34 33 33 33 32 31 30 28 24 21 21 22 24 25 23 21 19 17 16
6 7 7 9 9 7 13 15 14 15 18 21 22 23 24 23 23 26 27 27 28 30 32 34 35 37 37 37 36 35 35 36 37 39 40 40 40 39 39 39 38 37 37 38 37 36 36 38 39 41 42 41 38 38 41 42 41 40 40 40 40 39 37 37 36 33 32 33 33 32 31 30 29 26 23 20 20 22 24 25 23 21 19 16 15
6 7 7 10 11 4 6 12 13 15 19 22 23 24 23 22 22 25 25 25 28 31 34 35 37 37 37 36 37 38 40 41 41 41 40 40 39 38 38 38 38 38 37 36 35 34 35 37 39 41 42 40 37 37 39 40 39 39 39 40 40 38 36 35 34 31 30 31 30 30 29 29 28 25 21 21 22 24 25 24 22 21 19 17 16
6 9 10 10 11 10 6 3 4 10 17 22 25 24 22 21 22 23 23 25 30 34 36 38 38 36 36 37 38 40 41 41 41 40 39 38 38 37 37 38 38 37 35 33 33 34 34 35 37 38 39 39 38 37 37 38 38 38 39 40 40 38 36 35 33 30 28 28 28 28 28 28 25 22 21 22 23 25 24 22 21 21 19 17 15
6 10 11 10 11 13 11 10 7 1 11 19 21 20 19 20 19 19 23 30 34 35 34 33 32 31 33 35 37 39 41 41 40 38 37 37 39 39 38 38 37 35 33 32 32 33 33 34 35 36 37 38 38 36 35 36 37 38 40 41 40 39 38 36 32 29 28 29 28 28 27 25 23 21 22 23 23 24 23 21 20 19 15 13 12
5 10 12 10 10 13 14 15 16 9 6 15 19 17 16 17 17 20 28 32 29 27 26 26 26 28 31 34 36 39 40 39 39 39 39 40 41 40 38 37 35 34 33 34 33 33 32 32 33 34 35 35 35 36 36 37 38 39 40 42 42 41 39 35 30 28 29 29 29 29 27 25 23 21 21 22 22 23 22 20 18 15 12 11 11
6 10 13 12 9 11 14 16 19 18 10 5 11 13 14 15 18 25 31 29 25 25 25 24 25 28 30 33 36 38 39 39 39 41 41 40 40 40 40 39 37 36 35 34 34 33 32 30 30 31 33 33 33 35 38 39 40 40 40 41 42 41 39 35 31 30 31 30 28 27 25 24 22 19 18 20 21 22 22 20 16 13 13 12 12
9 11 14 13 10 10 12 15 19 20 17 11 4 3 7 11 16 20 20 20 23 26 25 25 27 29 31 33 35 37 37 37 38 40 39 38 37 37 37 37 37 36 35 33 33 33 31 29 28 28 29 31 32 35 38 40 41 41 41 42 42 41 38 35 32 31 30 29 28 26 24 22 20 19 19 20 22 22 21 18 15 14 13 13 13
11 13 15 14 12 12 14 15 17 19 17 15 13 8 4 5 9 10 10 12 19 22 23 26 29 31 33 34 35 36 38 38 38 39 38 37 35 33 32 33 34 33 31 30 30 32 32 31 29 28 28 30 33 35 38 40 41 42 42 42 42 42 39 35 32 30 28 27 25 24 22 21 20 20 20 21 23 22 20 17 15 14 14 14 15
12 14 15 15 14 14 15 14 15 17 16 14 14 12 10 10 11 10 9 10 14 20 24 26 28 30 33 34 34 34 36 38 38 38 39 38 36 35 33 33 32 32 31 29 28 28 30 29 29 29 29 31 33 36 39 41 41 41 42 42 42 42 40 36 33 30 27 24 23 21 20 20 20 21 23 24 24 22 19 16 15 15 15 16 17
12 14 15 15 13 13 14 12 12 15 16 15 14 13 12 13 14 13 10 9 10 18 24 26 28 30 31 31 32 33 34 35 36 36 36 35 36 36 36 34 33 33 31 30 29 28 28 27 27 28 31 33 36 37 38 40 40 40 42 44 43 40 37 33 30 28 26 24 22 20 20 21 21 23 25 25 24 21 19 18 17 17 17 18 18
11 14 15 14 12 12 12 12 12 15 17 17 16 16 15 14 15 15 12 10 9 12 18 22 25 27 28 30 33 34 33 33 33 35 35 35 37 38 38 38 41 40 36 33 32 31 31 32 30 31 32 32 33 36 39 42 43 43 43 43 41 38 35 32 31 29 27 24 22 21 22 23 24 25 25 23 21 20 19 19 19 19 20 19 18
11 14 14 13 11 11 11 12 14 16 18 18 18 18 18 17 17 17 15 11 9 9 12 15 17 19 22 25 28 31 32 31 31 33 36 38 42 43 42 43 46 48 46 43 40 38 39 38 35 34 34 30 29 36 44 45 43 42 42 42 41 40 37 35 33 31 29 27 26 25 26 26 26 25 24 22 21 20 20 20 21 21 21 20 19
10 12 13 13 12 11 10 11 13 15 16 16 17 18 19 18 18 19 19 16 13 10 10 11 12 13 14 16 18 21 25 27 29 31 34 37 40 42 42 42 44 48 51 52 51 49 46 41 37 37 40 39 37 40 45 45 42 41 42 43 42 42 40 37 35 32 30 29 30 29 28 27 26 25 23 23 22 22 23 23 23 22 21 20 19
9 10 10 12 12 12 11 11 12 14 14 14 14 16 18 18 18 19 19 18 16 13 11 10 9 8 9 10 13 16 19 21 24 26 28 29 31 34 38 40 40 42 47 51 52 50 46 45 45 43 42 42 40 39 40 43 43 43 43 42 41 41 40 38 35 32 31 32 32 31 28 26 25 25 24 24 24 24 25 25 24 22 21 21 19
Wind_Direction
194 195 198 197 197 196 194 194 194 196 198 199 199 201 202 201 201 203 205 206 208 209 210 211 213 214 218 220 223 227 229 232 235 235 235 235 234 235 236 237 240 243 246 248 250 251 250 251 253 252 250 249 249 254 259 260 261 262 263 262 260 260 266 280 283 281 300 284 233 191 138 131 135 126 187 203 214 216 211 212 210 204 226 239 251
181 195 199 198 198 197 195 194 193 194 197 198 200 202 203 202 203 203 204 205 208 209 210 211 213 214 216 219 221 225 227 230 232 232 233 233 233 233 235 237 238 241 245 248 248 249 249 249 250 250 249 248 248 252 256 257 257 257 257 255 251 252 262 274 267 271 296 308 255 136 100 106 124 107 193 207 210 213 209 206 205 206 224 237 80
189 195 196 197 198 196 196 196 196 197 197 199 202 203 203 204 205 205 205 205 208 210 211 212 214 216 218 220 221 223 227 230 231 232 232 233 234 234 235 236 238 240 244 246 246 246 247 247 248 249 249 248 247 248 250 251 252 252 252 250 246 249 253 254 261 263 249 236 70 69 35 55 79 67 198 211 207 207 206 201 197 199 215 218 79
194 195 195 196 196 195 196 197 198 199 199 200 201 202 202 204 205 206 206 207 208 210 212 213 214 216 219 221 223 226 229 232 234 234 233 233 234 235 236 237 239 241 242 243 242 244 245 245 246 247 250 250 246 246 247 248 249 248 248 245 239 243 245 241 254 251 232 227 143 88 47 51 7 15 64 213 202 199 201 200 196 201 214 205 136
195 195 195 194 194 196 197 198 198 199 201 202 201 201 203 205 206 207 207 207 209 210 211 212 212 214 216 218 223 225 228 230 231 232 232 231 232 234 235 237 239 241 242 242 241 242 243 243 244 246 248 249 246 245 246 248 250 249 249 244 236 239 240 235 245 245 239 239 215 155 82 85 238 194 85 45 180 191 199 202 201 206 218 214 204
200 199 197 196 196 196 197 198 198 200 203 204 203 204 205 206 207 207 207 207 209 210 210 209 209 210 210 210 213 215 218 222 223 225 227 228 230 232 234 237 239 240 240 241 241 241 241 242 243 244 246 247 246 247 246 247 250 249 250 244 235 238 237 233 239 241 240 240 234 228 238 265 217 153 117 43 116 188 208 212 209 211 221 228 226
203 203 200 202 202 199 198 198 199 202 205 205 205 206 207 207 207 206 207 208 209 209 208 208 208 209 209 210 211 212 215 220 223 225 226 228 229 231 234 237 239 239 240 240 240 240 240 241 242 243 245 246 247 247 246 247 250 250 251 243 236 236 233 231 236 239 238 237 238 236 244 262 219 171 157 145 124 186 221 219 218 218 223 231 235
200 202 200 201 204 203 203 201 201 204 205 204 204 206 207 207 207 207 207 208 208 208 208 208 208 209 210 211 213 215 218 221 223 224 226 228 228 229 233 237 238 239 239 239 239 240 240 240 242 243 244 245 246 247 248 250 251 251 249 239 234 233 228 230 236 240 240 236 235 231 234 238 214 202 194 174 140 149 218 219 221 225 228 231 235
200 202 201 202 202 204 206 205 206 206 204 202 203 205 206 206 207 207 207 208 208 207 207 209 210 210 210 211 213 216 219 221 222 223 223 225 226 229 232 235 237 238 238 238 239 240 240 240 241 242 242 244 246 248 249 250 250 250 245 234 232 230 224 230 239 244 245 243 240 234 222 209 199 199 190 177 147 154 190 233 218 224 234 234 233
204 204 203 205 206 207 208 207 208 209 206 204 204 204 204 204 205 206 207 207 207 206 207 208 209 210 210 211 213 216 216 217 219 220 221 222 225 228 230 232 235 236 236 237 239 240 241 241 241 240 241 242 244 247 247 248 248 248 243 235 233 229 223 229 240 247 253 249 245 239 222 207 193 181 179 173 150 153 166 199 208 207 222 231 230
205 206 206 208 210 212 211 210 211 211 209 207 206 205 203 203 203 205 208 207 206 206 206 207 208 208 210 212 214 215 214 213 213 215 216 217 219 222 226 229 230 233 234 236 238 239 240 241 240 239 240 240 242 245 246 246 246 247 241 232 231 227 223 231 241 247 253 249 245 245 238 230 221 216 210 198 180 167 163 171 200 204 215 227 228
204 204 207 207 210 213 212 214 215 211 210 210 208 207 204 203 203 205 207 207 206 206 206 207 207 208 210 212 214 215 213 211 212 214 214 213 216 218 220 223 226 229 232 234 236 237 238 238 237 237 237 238 239 242 244 244 245 246 238 227 224 223 224 233 242 246 249 246 244 243 242 245 238 233 240 231 220 211 196 167 171 192 215 230 230
204 203 205 204 206 208 206 210 213 209 208 209 209 207 205 205 204 204 207 207 206 206 206 207 207 208 210 211 214 214 213 213 213 215 215 215 216 215 215 218 221 224 228 232 235 235 236 235 234 234 235 236 236 239 243 241 242 243 234 224 221 220 224 234 241 247 250 248 247 242 238 244 244 241 249 246 236 222 203 175 158 172 206 217 218
205 204 203 204 206 205 203 207 208 206 206 207 207 206 205 205 205 205 207 206 206 206 206 207 208 209 210 211 213 212 212 213 214 215 215 216 217 216 216 218 219 223 227 231 235 235 235 234 234 235 236 236 236 238 241 240 241 241 232 224 221 221 226 234 240 245 249 250 249 244 240 243 244 246 251 247 236 225 210 191 169 159 198 187 195
205 205 204 206 206 203 203 206 207 206 206 206 206 205 205 205 205 205 207 206 206 206 206 207 209 210 211 211 212 212 213 213 214 216 216 217 218 218 219 220 222 225 228 232 235 236 235 234 233 235 236 236 235 237 239 238 239 237 230 226 225 225 229 236 239 242 245 247 247 246 244 242 242 247 251 246 240 237 231 215 193 176 202 262 239
203 204 206 208 206 203 203 205 207 207 205 205 205 205 204 205 205 205 207 207 206 206 207 208 209 210 211 211 212 213 213 213 214 215 216 218 219 220 221 223 225 228 229 231 234 235 235 233 233 235 236 236 235 236 238 237 236 232 227 227 228 228 232 236 238 240 243 246 247 246 243 240 243 247 246 243 241 245 247 237 222 210 205 231 306
202 204 206 207 204 203 204 205 207 207 205 205 205 205 205 205 204 205 207 207 207 207 208 209 209 210 211 211 212 212 213 213 214 215 216 217 219 221 223 224 226 228 229 230 231 233 234 234 233 234 235 235 234 235 237 236 232 228 226 228 230 231 234 237 237 240 244 247 246 244 242 242 242 241 240 242 243 246 249 246 238 230 222 212 191
205 206 206 206 203 203 204 205 207 207 206 206 206 206 205 205 205 205 206 206 207 208 208 209 209 209 211 211 212 212 213 214 215 215 215 216 218 220 222 223 225 227 228 228 228 230 232 233 234 234 234 234 233 233 235 234 230 227 227 231 233 234 237 238 237 239 244 246 243 242 242 242 240 238 238 240 241 244 248 247 244 241 238 232 222
205 206 208 206 204 205 204 205 207 207 207 208 208 206 204 205 206 206 207 208 209 209 208 209 209 209 211 212 212 213 213 214 215 215 215 215 217 219 220 222 223 225 226 226 226 227 229 231 233 234 233 232 231 231 232 232 229 226 227 230 234 236 237 237 237 239 241 242 241 240 240 240 240 237 235 235 235 239 243 245 245 243 244 245 240
203 204 207 206 205 205 203 205 206 206 207 208 207 204 203 205 206 207 209 210 210 210 209 210 210 210 211 211 212 213 213 214 215 215 214 215 217 218 219 220 221 222 224 224 224 225 227 230 231 232 232 231 230 229 230 230 227 226 227 230 232 235 237 236 236 238 239 239 240 240 240 241 240 237 233 231 233 236 239 241 244 245 245 247 246
205 204 206 206 205 204 204 206 206 206 207 206 204 202 203 204 204 206 207 208 209 210 210 210 210 210 210 210 211 212 213 214 214 215 215 216 217 218 219 219 219 220 222 222 222 224 226 229 230 232 232 230 228 228 228 227 226 227 227 229 232 234 236 237 236 237 237 238 240 241 242 242 240 239 236 232 232 234 234 233 237 241 242 244 246
208 208 208 206 203 202 203 204 205 205 205 204 202 202 202 203 204 205 206 207 209 210 210 210 209 209 210 210 211 211 212 213 213 214 215 216 217 217 218 218 217 219 221 221 221 223 225 226 229 231 231 230 228 227 227 226 226 227 227 229 231 233 235 236 235 236 237 238 239 241 243 243 241 240 238 234 234 233 230 231 234 236 239 242 245
213 212 211 207 202 201 200 201 202 203 203 201 200 200 201 203 204 204 205 208 210 210 210 209 208 209 210 210 210 210 211 212 212 214 215 215 216 217 216 217 217 218 219 220 221 222 223 225 227 228 229 228 228 226 226 226 226 227 228 229 231 233 235 236 235 237 238 238 238 240 242 243 241 240 238 235 235 235 234 236 237 237 238 241 245
217 213 212 207 199 196 198 200 201 202 201 199 199 200 201 203 203 203 206 209 211 210 209 208 208 209 209 209 210 210 210 211 212 213 214 214 215 216 216 216 216 217 218 219 221 221 222 223 224 225 225 225 226 226 226 226 227 228 228 230 232 234 235 236 237 239 239 237 237 238 241 242 240 238 236 236 235 235 237 238 238 239 239 243 248
219 212 207 199 190 191 198 201 200 200 200 198 198 199 200 201 202 203 207 210 210 209 209 207 208 208 208 208 209 209 210 211 211 213 213 214 214 215 215 215 215 215 216 218 219 219 220 221 222 222 222 223 225 225 225 226 227 228 229 231 233 234 236 237 238 240 239 238 237 238 240 239 238 236 234 234 234 235 238 240 241 242 243 247 251
215 207 201 195 191 195 199 200 199 199 198 197 197 198 199 201 202 204 207 208 207 208 207 207 207 207 207 208 208 209 210 210 211 212 212 213 214 214 214 214 214 214 215 217 218 218 219 220 222 221 221 222 223 224 224 226 227 228 229 231 233 235 236 237 238 239 239 239 239 239 239 238 236 235 234 234 235 236 240 243 245 246 247 247 250
217 206 198 191 191 200 201 198 199 198 197 198 198 198 198 199 202 205 206 206 205 206 206 206 206 206 208 209 209 209 210 210 211 211 212 213 213 213 213 213 213 213 213 215 217 218 220 221 222 221 221 222 221 222 223 225 226 228 229 230 231 233 234 236 238 240 240 240 240 240 239 238 238 237 236 236 235 236 239 245 248 248 247 246 246
219 202 196 191 196 204 201 197 197 196 198 199 199 199 199 200 202 203 204 204 204 203 204 205 205 206 208 210 210 210 210 210 211 211 212 212 212 212 212 212 212 212 213 215 216 218 220 222 222 221 221 220 220 220 222 223 224 226 228 229 229 230 232 234 237 239 240 240 241 241 240 240 240 240 240 239 238 236 238 242 245 245 244 243 244
215 203 197 195 201 203 199 198 196 194 196 197 199 200 199 201 203 202 202 204 202 201 202 203 204 206 209 209 209 209 209 210 210 211 211 212 211 211 211 211 212 212 213 215 216 218 220 221 221 220 219 218 218 219 221 222 223 224 225 227 227 228 230 232 235 237 239 240 241 242 241 241 241 242 242 243 242 240 240 241 243 243 242 242 243
226 215 207 204 205 204 199 197 193 191 194 195 196 197 197 200 202 201 203 203 201 200 201 202 205 207 208 208 207 208 207 207 209 210 211 211 211 210 210 211 212 212 213 214 215 217 219 220 220 218 217 217 218 220 222 223 224 224 224 224 225 227 229 231 233 234 237 240 242 243 242 241 242 243 243 244 242 241 241 242 243 246 245 242 242
235 224 218 213 212 208 200 196 194 193 193 193 195 196 197 200 201 201 203 202 199 200 201 203 207 208 206 206 206 206 205 206 207 208 209 209 208 208 209 211 212 212 213 213 214 217 218 219 218 216 216 217 219 221 223 224 225 224 223 223 224 226 228 229 230 232 236 240 242 243 243 242 242 243 244 244 241 240 241 240 243 248 248 244 243
244 238 227 217 214 208 200 198 199 196 194 194 195 195 196 199 200 202 202 199 198 200 202 205 208 207 204 205 205 204 204 205 206 207 207 207 206 207 208 209 211 212 211 212 214 217 218 218 217 216 217 218 220 223 223 223 224 223 223 223 224 225 227 228 230 232 235 239 241 242 241 240 242 245 248 247 241 238 239 239 243 247 246 245 245
249 245 236 225 217 208 203 204 202 198 198 198 195 192 195 199 200 201 198 195 197 201 204 207 208 206 205 205 203 203 203 204 205 205 205 204 204 205 207 208 210 211 210 211 214 216 218 217 216 216 218 219 222 223 224 223 223 223 223 223 223 225 227 228 230 232 234 238 238 232 229 240 245 245 247 246 241 237 238 238 241 243 244 246 247
263 239 233 230 224 216 211 210 208 207 206 202 197 195 199 200 198 195 193 193 198 201 203 206 206 205 205 204 203 203 204 204 204 204 203 203 203 205 207 208 209 209 210 212 214 215 217 217 217 217 219 221 223 224 224 223 222 223 223 223 223 224 227 228 231 233 235 236 232 222 228 240 243 240 241 242 239 236 235 235 236 238 241 244 244
294 278 257 237 222 216 214 212 212 212 208 204 200 200 200 198 194 192 193 195 198 200 203 204 204 204 205 203 203 204 204 204 204 203 203 203 204 206 207 208 208 209 210 212 213 214 216 216 217 218 219 221 223 224 223 223 222 223 223 222 221 222 225 228 230 233 235 234 229 228 234 237 236 236 239 240 237 235 233 232 233 235 238 240 239
309 303 282 260 234 217 213 213 211 206 200 199 203 202 198 194 193 194 196 197 199 201 203 203 203 203 204 203 203 203 203 203 202 202 203 205 205 207 207 207 208 210 211 213 214 215 215 215 216 217 219 222 224 223 223 223 222 222 222 220 219 220 223 226 229 232 233 232 231 232 234 234 233 236 241 242 239 236 233 231 230 230 230 230 231
303 301 296 294 272 230 214 208 200 196 196 197 200 200 197 195 196 196 197 198 200 201 202 202 204 204 204 204 203 201 201 201 201 202 204 206 207 208 208 207 208 209 211 213 214 215 215 215 215 216 218 221 223 223 223 223 222 220 218 216 217 218 221 224 228 230 229 230 231 231 231 233 234 238 243 243 237 232 230 228 224 220 220 220 221
307 319 325 329 320 259 214 200 188 189 196 196 195 195 194 194 195 196 198 198 200 203 203 204 206 206 205 204 201 199 200 202 203 204 205 206 207 208 208 208 209 210 212 213 213 214 215 215 215 217 218 220 222 222 222 222 220 218 216 215 216 217 218 222 226 227 228 229 231 232 232 232 234 238 240 237 230 225 223 220 217 213 210 210 210
321 344 343 335 344 356 186 186 181 185 192 193 193 192 191 193 196 196 197 200 203 206 206 206 208 207 205 203 201 200 202 203 205 206 206 207 207 208 209 209 210 212 213 214 213 213 214 215 216 218 219 220 221 221 221 220 218 217 216 216 215 215 216 220 222 222 225 227 229 230 231 232 236 238 236 232 227 222 218 217 215 210 205 204 203
342 359 357 350 10 41 71 111 166 191 194 191 189 187 187 194 198 196 199 205 208 209 209 209 209 206 204 203 201 202 204 205 206 206 206 207 208 209 209 210 211 213 213 213 213 213 214 215 217 218 220 220 220 220 219 217 216 216 217 216 214 213 215 218 218 217 217 220 224 227 229 232 235 233 229 228 226 222 220 218 214 211 210 208 200
8 11 9 7 24 43 48 39 38 146 194 188 183 182 187 193 194 197 207 212 213 213 213 212 211 206 205 204 203 204 206 207 208 207 205 206 208 209 209 209 210 211 211 212 213 213 214 216 217 217 219 220 219 217 215 214 215 218 218 216 213 214 216 217 215 213 214 217 220 222 225 228 227 224 224 225 223 223 222 217 213 214 214 205 193
28 24 21 17 24 36 37 32 35 49 168 187 182 180 185 188 191 206 216 217 217 217 217 215 212 209 207 206 206 207 208 208 208 206 205 206 208 208 209 209 208 208 209 210 211 211 213 216 217 217 219 218 216 215 214 214 215 218 219 217 215 217 219 216 210 209 213 217 219 220 221 221 217 217 222 221 220 220 217 211 211 208 199 191 190
31 25 24 26 29 33 29 25 31 41 56 156 188 191 189 189 202 216 220 219 218 218 217 215 213 211 211 210 209 209 209 208 207 206 206 207 207 205 206 206 205 205 206 207 208 208 209 212 213 215 216 214 211 211 214 216 217 218 218 217 217 219 218 214 210 211 214 215 217 218 220 218 214 214 218 216 213 212 210 206 201 194 189 188 189
33 29 28 32 37 36 33 30 30 34 39 47 59 211 211 212 223 230 231 225 221 218 215 212 211 211 213 213 212 212 212 211 209 208 208 208 207 206 206 205 204 204 205 205 205 203 203 206 207 209 210 207 204 207 212 216 217 218 218 216 215 215 215 214 213 214 215 215 217 219 220 218 215 214 214 211 208 206 204 199 193 191 191 190 191
38 35 33 36 41 42 42 41 36 30 31 34 32 23 352 289 272 273 274 250 230 220 214 212 212 212 214 214 214 214 214 213 212 209 208 208 207 206 206 206 204 205 206 207 205 201 199 200 200 199 196 194 196 202 209 213 216 218 218 216 212 210 211 212 210 211 215 218 220 222 220 215 211 210 207 204 202 201 198 194 192 192 192 195 199
34 32 30 32 39 41 41 42 38 32 27 23 23 25 15 353 336 322 306 277 246 227 219 217 215 216 216 215 214 215 215 215 213 211 210 209 206 203 205 206 205 205 207 209 207 204 201 199 197 191 186 184 190 198 204 209 213 214 215 214 210 206 207 207 206 206 211 214 216 216 213 208 206 205 201 197 195 194 191 189 191 194 197 202 202
27 25 22 26 32 33 31 32 29 25 21 17 17 19 13 4 357 349 334 310 266 236 227 223 220 219 219 217 216 217 217 216 214 212 211 210 207 205 204 203 203 204 204 204 204 204 203 201 195 187 182 182 186 191 198 204 205 206 209 211 206 202 200 199 197 198 199 200 202 204 204 203 199 195 192 191 190 189 187 186 189 196 201 203 200
29 28 24 24 26 23 20 20 17 14 13 12 12 11 8 6 3 358 349 333 299 261 245 237 231 226 222 218 217 218 218 216 215 213 210 209 207 207 206 205 205 203 200 199 199 200 203 202 194 186 182 181 182 186 193 199 200 200 203 203 197 193 191 190 189 188 186 186 189 189 188 188 186 183 184 185 185 185 186 189 193 197 199 198 195
40 40 38 35 30 24 18 14 9 6 6 7 6 4 3 3 2 1 357 346 326 301 279 267 260 251 240 232 227 224 221 220 218 215 214 213 211 209 208 209 210 207 204 200 197 199 204 204 196 187 182 177 179 189 195 198 199 200 200 196 190 187 186 186 186 184 177 173 175 176 176 176 176 177 179 180 180 182 185 191 196 198 196 194 195
48 51 50 48 43 36 30 21 11 5 3 2 359 357 358 360 360 360 359 353 343 331 312 297 290 281 270 261 253 244 236 230 224 220 219 220 219 216 214 214 215 213 210 206 203 203 204 199 193 191 189 185 187 194 197 195 194 197 199 197 191 187 185 184 184 181 175 170 169 170 173 175 176 178 179 178 180 183 187 191 194 197 196 197 201
49 52 53 52 49 45 40 32 20 13 9 4 360 358 359 360 359 359 1 1 358 356 351 343 333 314 293 280 269 261 256 250 241 233 226 223 223 221 220 219 219 217 213 209 208 207 202 195 191 189 186 188 195 200 198 193 189 190 193 192 188 185 183 181 180 177 172 170 170 170 171 176 179 180 181 181 182 186 189 191 191 194 198 202 208